Weather observations for the past three days for
Marthas Vineyard Airport
Imperial (Metric)
Date Time (edt) Wind (mph) Vis. (mi.) Weather Sky Cond. Temperature (ºF) Relative Humidity Wind Chill (°F) Heat Index (°F) Pressure Precipitation (in)
Air Dwpt 6 hour altimeter (in) sea level (mb) 1 hr 3 hr 6 hr
Max. Min.
23 18:53 E 6 10.00 Partly Cloudy FEW018 SCT034 72 64.9 79% 30.11 1019.4
23 17:53 E 8 10.00 Mostly Cloudy FEW010 BKN060 73 66 79% 30.08 1018.4
23 16:53 NE 8 10.00 Overcast FEW034 OVC043 73 66.9 81% 30.07 1018.2
23 15:53 E 6 10.00 Overcast SCT012 BKN029 OVC047 73.9 66.9 79% 30.07 1018.2
23 14:53 E 7 10.00 Overcast BKN010 OVC014 72 66.9 84% 30.06 1018.0
23 13:53 E 10 10.00 Overcast OVC009 72 66.9 72 68 84% 30.05 1017.5
23 12:53 NE 8 10.00 Overcast OVC009 72 66.9 84% 30.05 1017.3
23 11:53 NE 8 10.00 Overcast OVC008 72 68 87% 30.03 1016.9
23 10:53 NE 12 5.00 Fog/Mist OVC005 70 68 93% 30.02 1016.5
23 09:53 NE 9 2.50 Fog/Mist OVC005 69.1 66.9 93% 30.01 1016.2
23 08:53 E 9 2.50 Fog/Mist OVC006 68 66 93% 30.01 1016.0
23 07:53 NE 9 1.25 Light Rain Fog/Mist OVC005 68 66 73 66.9 93% 30.01 1016.0 0.02 0.13
23 06:53 E 9 1.50 Light Rain Fog/Mist BKN005 BKN009 OVC017 68 66 93% 30 1015.6 0.01
23 05:53 E 6 8.00 Overcast OVC026 69.1 66 90% 29.99 1015.3
23 04:53 E 7 9.00 Overcast BKN036 BKN043 OVC050 68 66 93% 29.99 1015.5 0.02 0.1
23 03:53 SE 10 4.00 Rain Fog/Mist SCT060 OVC090 69.1 66 90% 30 1015.9 0.06
23 02:53 SE 10 7.00 Light Rain OVC085 72 69.1 91% 30.01 1016.1 0.02
23 01:53 SE 12 10.00 Light Rain OVC090 73 69.1 75 73 87% 30.02 1016.3
23 00:53 SE 6 10.00 Overcast OVC100 73.9 68 82% 30.04 1017.0
22 23:53 S 12 10.00 Mostly Cloudy BKN100 BKN120 73.9 70 88% 30.06 1017.9
22 22:53 S 9 10.00 Fair CLR 73.9 70 88% 30.07 1018.3
22 21:53 S 9 10.00 Fair CLR 73.9 71.1 91% 30.08 1018.5
22 20:53 S 9 10.00 Fair CLR 73.9 72 94% 30.07 1018.2
22 19:53 S 8 10.00 Fair CLR 75 71.1 80.1 75 88% 75 30.06 1017.9
22 18:53 S 8 10.00 Fair CLR 75.9 72 88% 76 30.07 1018.2
22 17:53 S 10 10.00 Fair CLR 77 71.1 82% 79 30.07 1018.2
22 16:53 SW 10 10.00 Fair CLR 78.1 70 76% 80 30.08 1018.4
22 15:53 SW 12 G 22 10.00 A Few Clouds FEW011 79 71.1 77% 82 30.08 1018.6
22 14:53 SW 10 G 20 10.00 Fair CLR 78.1 69.1 74% 80 30.09 1018.9
22 13:53 SW 14 10.00 Fair CLR 80.1 70 82 73.9 71% 83 30.1 1019.0
22 12:53 SW 13 10.00 Fair CLR 80.1 71.1 74% 84 30.1 1019.1
22 11:53 SW 10 10.00 Fair CLR 80.1 69.1 69% 83 30.1 1019.1
22 10:53 SW 7 10.00 Fair CLR 79 69.1 72% 82 30.1 1019.1
22 09:53 S 7 10.00 Fair CLR 79 66.9 67% 81 30.1 1019.2
22 08:53 Calm 10.00 Fair CLR 77 68 74% 79 30.1 1019.0
22 07:53 Calm 10.00 Fair CLR 73.9 69.1 73.9 64 85% 30.09 1018.9
22 06:53 SW 3 10.00 Fair CLR 71.1 66.9 87% 30.08 1018.5
22 05:53 W 3 6.00 Fog/Mist CLR 64 63 96% 30.07 1018.2
22 04:53 Calm 9.00 Fair CLR 66 64.9 96% 30.06 1017.7
22 03:53 W 3 10.00 Fair CLR 68 66 93% 30.05 1017.4
22 02:53 W 5 10.00 Fair CLR 70 68 93% 30.05 1017.6
22 01:53 W 5 10.00 A Few Clouds FEW095 70 68 75 70 93% 30.05 1017.5
22 00:53 W 6 10.00 Fair CLR 71.1 68 90% 30.05 1017.5
21 23:53 W 8 10.00 Fair CLR 72 66.9 84% 30.05 1017.3
21 22:53 W 5 10.00 Fair CLR 72 68 87% 30.04 1017.1
21 21:53 W 8 10.00 Fair CLR 72 68 87% 30.03 1016.7
21 20:53 W 9 10.00 Fair CLR 73 68 84% 30.02 1016.4
21 19:53 SW 8 10.00 Fair CLR 75 68 81 75 79% 76 30.01 1016.1
21 18:53 SW 9 10.00 Fair CLR 77 66.9 71% 79 29.99 1015.5
21 17:53 Vrbl 6 10.00 Fair CLR 79 66.9 67% 81 29.99 1015.3
21 16:53 SW 9 G 18 10.00 Fair CLR 80.1 69.1 69% 83 29.99 1015.4
21 15:53 SW 13 G 21 10.00 Fair CLR 80.1 66 62% 82 29.99 1015.3
21 14:53 SW 12 10.00 Fair CLR 80.1 69.1 69% 83 29.99 1015.5
21 13:53 S 17 10.00 Fair CLR 79 68 82 71.1 69% 81 30 1015.6
21 12:53 W 10 10.00 Fair CLR 82 63 53% 83 29.99 1015.6
21 11:53 W 10 10.00 Fair CLR 80.1 66 62% 82 30 1015.6
21 10:53 W 9 10.00 Fair CLR 79 64.9 62% 81 30 1015.8
21 09:53 Vrbl 5 10.00 Fair CLR 80.1 64.9 60% 82 30.01 1015.9
21 08:53 W 3 10.00 Overcast SCT100 OVC120 73 64.9 76% 30.01 1015.9
21 07:53 Vrbl 5 10.00 Overcast SCT060 OVC095 72 66 73.9 72 82% 30.01 1016.2
21 06:53 W 7 10.00 Overcast OVC100 72 66.9 84% 30.02 1016.3
21 05:53 W 6 10.00 Overcast OVC065 73 66 79% 30 1015.8
21 04:53 SW 7 10.00 Overcast BKN070 OVC090 73 66 79% 30 1015.6
21 03:53 SW 7 10.00 Overcast BKN055 OVC070 73.9 64.9 74% 29.99 1015.6
21 02:53 SW 9 10.00 Partly Cloudy SCT070 73.9 66 76% 30.01 1015.9
21 01:53 SW 8 G 17 10.00 Fair CLR 73.9 66 73.9 72 76% 30.01 1016.0
21 00:53 SW 8 10.00 Fair CLR 73.9 66 76% 30.02 1016.4
20 23:53 SW 6 10.00 Fair CLR 73 66 79% 30.03 1016.8
20 22:53 SW 7 10.00 Fair CLR 73 64.9 76% 30.04 1017.1
20 21:53 SW 6 10.00 Fair CLR 73 64.9 76% 30.05 1017.6
20 20:53 SW 8 10.00 Fair CLR 73 66 79% 30.05 1017.4
20 19:53 SW 9 10.00 Fair CLR 73.9 66 78.1 73.9 76% 30.05 1017.6
Date Time (edt) Wind (mph) Vis. (mi.) Weather Sky Cond. Air Dwpt Max. Min. Relative Humidity Wind Chill (°F) Heat Index (°F) altimeter (in) sea level (mb) 1 hr 3 hr 6 hr
6 hour
Temperature (ºF) Pressure Precipitation (in)